Regional Weather Roundup
Issued by NWS

Home | Current Version | Previous Version | Text Only | Print | Product List | Glossary Off
Versions: 1 2 3 4 5 6 7 8 9 10 11 12 13 14 15 16 17 18 19 20 21 22 23 24 25 26 27 28 29 30 31 32 33 34 35 36 37 38 39 40 41 42 43 44 45 46 47 48 49 50

000
ASUS43 KOAX 202302
RWRNE

WEATHER ROUNDUP FOR NEBRASKA
NATIONAL WEATHER SERVICE OMAHA NE
500 PM CST SAT JAN 20 2018

NOTES: SATELLITE DATA IS BEING USED TO AUGMENT CLOUD COVER ABOVE
       12000 FEET.
       "FAIR" INDICATES FEW OR NO CLOUDS BELOW 12,000 FEET WITH NO
       SIGNIFICANT WEATHER AND/OR OBSTRUCTIONS TO VISIBILITY.


NEZ001>004-019>022-054>056-210000-
NEBRASKA PANHANDLE

CITY           SKY/WX    TMP DP  RH WIND       PRES   REMARKS
SCOTTSBLUFF    CLOUDY    35  31  85 NE10      29.84R WCI  27
ALLIANCE       CLOUDY    33  31  92 NE12      29.83S WCI  24
CHADRON        LGT SNOW  33  32  96 NE14      29.90F FOG     WCI  23
KIMBALL        CLOUDY    32  30  94 N9        29.81R WCI  24
SIDNEY         CLOUDY    33  29  85 N13       29.81R WCI  24
$$

NEZ057>060-069>072-079>082-210000-
SOUTHWEST NEBRASKA

CITY           SKY/WX    TMP DP  RH WIND       PRES   REMARKS
NORTH PLATTE   CLOUDY    41  30  65 NE9       29.80R
IMPERIAL       CLOUDY    43  30  60 NE12      29.79R
LEXINGTON      MOCLDY    46  32  56 NE10      29.78R
MCCOOK         MOCLDY    46  31  55 NE9       29.76R
OGALLALA       CLOUDY    40  32  73 N14       29.81R WCI  32
$$

NEZ005>010-023>029-035>040-094-210000-
NORTH CENTRAL NEBRASKA

CITY           SKY/WX    TMP DP  RH WIND       PRES   REMARKS
VALENTINE      CLOUDY    40  32  73 N9        29.89R WCI  34
AINSWORTH      CLOUDY    37  32  82 N6        29.87R WCI  32
BROKEN BOW     CLOUDY    40  32  73 N13       29.80R WCI  32
O`NEILL        CLOUDY    38  34  86 N7        29.86R WCI  32
ORD            CLOUDY    42  32  67 N14G20    29.81R
THEDFORD       CLOUDY    38  32  79 N7        29.85R WCI  32
$$

NEZ041-046>049-061>064-073>077-083>087-210000-
SOUTH CENTRAL NEBRASKA

CITY           SKY/WX    TMP DP  RH WIND       PRES   REMARKS
GRAND ISLAND   CLEAR     45  35  68 E9        29.80R
AURORA         CLEAR     46  32  57 E8        29.79R
HASTINGS       CLEAR     45  29  53 E12       29.77S
HEBRON         CLOUDY    45  40  82 NE5       29.80S
HOLDREGE       CLEAR     43  35  74 NE10      29.77R
KEARNEY        CLEAR     43  35  73 NE10      29.79R
YORK           CLEAR     45  32  61 SE7       29.81R
$$

NEZ011>018-030>034-042>045-210000-
NORTHEAST NEBRASKA

CITY           SKY/WX    TMP DP  RH WIND       PRES   REMARKS
NORFOLK        CLOUDY    60  33  36 N16       29.81R
ALBION         PTCLDY    46  33  62 N15       29.81S
BLAIR          CLEAR     45  34  65 E3        29.83R
COLUMBUS       CLEAR     48  31  51 E13       29.82S
FREMONT        CLEAR     47  29  50 E5        29.84R
TEKAMAH        CLEAR     47  32  56 SE7       29.84R
WAYNE          CLOUDY    44  32  60 N7        29.85R
$$

NEZ050>053-065>068-078-088>093-210000-
SOUTHEAST NEBRASKA

CITY           SKY/WX    TMP DP  RH WIND       PRES   REMARKS
LINCOLN        CLOUDY    47  39  74 SE8       29.83R
OMAHA EPPLEY   PTCLDY    44  37  76 S8        29.84R
BEATRICE       CLOUDY    43  40  88 NE5       29.82R
FALLS CITY     CLOUDY    48  42  80 SE3       29.83R
NEBRASKA CITY  CLOUDY    44  43  97 NE5       29.83R
PLATTSMOUTH    CLOUDY    42  39  89 SE5       29.84R
$$

NEZ044-045-051>053-067-210000-
OMAHA AREA

CITY           SKY/WX    TMP DP  RH WIND       PRES   REMARKS
OMAHA EPPLEY   PTCLDY    44  37  76 S8        29.84R
BLAIR          CLEAR     45  34  65 E3        29.83R
FREMONT        CLEAR     47  29  50 E5        29.84R
MILLARD        CLOUDY    48  39  72 SE6       29.84R
OFFUTT AFB     CLEAR     46  39  78 SE3       29.84R
PLATTSMOUTH    CLOUDY    42  39  89 SE5       29.84R
WAHOO          FAIR      45  30  55 E5        29.83R
$$




USA.gov is the U.S. government's official web portal to all federal, state and local government web resources and services.